Weather in Bosteri

Kyrgyzstan     42˚39′38″N   77˚11′18″E
temp.,
°C
wind,
m/s
gust,
m/s
humid.,
%
clouds,
%
prec.,
mm/h
press.,
hPa
HPBL,
m
27 november, fri
fri2700:00−10˚nnw334257 0.0 103482
03:00−8˚wnw236073 0.1 1033173
06:00−8˚wnw237480 0.2 1033144
09:00−6˚w227495 0.3 1031223
12:00−4˚sw127789 0.4 1028232
15:00−3˚ssw1176100 0.1 1025202
18:00−4˚w1171100 0.1 1025123
21:00−4˚sw1172100 0.0 1026120
28 november, sat
sat2800:00−3˚nw1268100 0.0 102496
03:00−3˚nw1266100 0.0 1023110
06:00−3˚nw1268100 0.1 1023122
09:00−4˚wnw1266100 0.0 1023116
12:00−2˚sw6883100 0.0 1028676
15:00−2˚wsw4974100 0.7 1033746
18:00−5˚w246668 0.8 1038282
21:00−8˚ese459999 0.5 1040223
29 november, sun
sun2900:00−9˚ne3394100 1.3 1040221
03:00−10˚ne2388100 0.3 1040230
06:00−10˚ese1492100 0.5 1042211
09:00−10˚ene1492100 0.4 1042209
12:00−8˚se4497100 1.1 1039422
15:00−8˚sse4495100 1.6 1039417
18:00−11˚ne249393 2.7 1042241
21:00−13˚nnw325436 0.2 1044176
30 november, mon
mon3000:00−14˚nnw334018 0.2 1042164
03:00−13˚nnw32440 0.0 1042145
06:00−13˚nw33440 0.0 1041131
09:00−12˚nw22490 0.0 1040144
12:00−8˚wsw23584 0.0 1035288
15:00−8˚wsw22710 0.0 1033203
18:00−12˚nnw22510 0.0 1035181
21:00−11˚nw225233 0.0 1034193
1 december, tue
tue100:00−11˚nw225767 0.0 1033184
03:00−11˚wnw126187 0.0 1032140
06:00−10˚wnw126693 0.1 1030113
09:00−9˚w1269100 0.0 1031139
12:00−6˚sw2380100 0.0 1028493
15:00−6˚se0186100 0.0 1027328
18:00−8˚n0279100 0.1 1030134
21:00−9˚nnw117299 0.0 1032139